{"data":{"norad_id":49950,"epoch":"2026-05-25T03:46:39.722016Z","epoch_age_seconds":58491,"freshness":"FRESH","line1":"1 49950U 21120B   26145.15740419  .00019966  00000+0  36347-3 0  9998","line2":"2 49950  41.9941 189.7072 0009804  81.4952 278.7002 15.49015473251273","mean_motion":15.49015473,"eccentricity":0.0009804,"inclination_deg":41.9941,"raan_deg":189.7072,"arg_perigee_deg":81.4952,"mean_anomaly_deg":278.7002,"bstar":0.00036347,"rev_number":25127,"period_min":92.962273463359,"perigee_km":412.9403884956,"apogee_km":426.26940080262,"semimajor_km":6797.7418946491,"source":"CELESTRAK","updated_at":"2026-05-25T13:37:57.277156Z"}}